Waarnemingen

Advertentie
Mijn weer
Mierkenis, Zweden (2121): temperatuur & dauwpunt: 22.10.2020 00:00:00 - 28.10.2020 00:00:00 (CET)Mierkenis, Zweden (2121): windsnelheid & windstoten: 22.10.2020 00:00:00 - 28.10.2020 00:00:00 (CET)Mierkenis, Zweden (2121): windrichting: 22.10.2020 00:00:00 - 28.10.2020 00:00:00 (CET)Mierkenis, Zweden (2121): luchtdruk: 22.10.2020 00:00:00 - 28.10.2020 00:00:00 (CET)Mierkenis, Zweden (2121): zicht: 22.10.2020 00:00:00 - 28.10.2020 00:00:00 (CET)Mierkenis, Zweden (2121): neerslag: 22.10.2020 00:00:00 - 28.10.2020 00:00:00 (CET)
Datum & Tijd tt [°C] td [°C] ff [km/u] ff [kn] fx [km/u] fx [kn] dd ppp [hPa] vv [km] rr [mm]
28.10.2020 00:00:00 0,0 -0,2 7 4 11 6 OZO 994,3 3,3 0,0
27.10.2020 23:00:00 -0,4 -0,5 5 3 10 5 ZZO 994,6 0,3 0,0
27.10.2020 22:00:00 -0,4 -0,5 3 2 9 5 ZZO 994,4 0,4 0,0
27.10.2020 21:00:00 -0,6 -0,7 6 3 11 6 ZZO 994,5 0,5 0,0
27.10.2020 20:00:00 -0,6 -0,7 9 5 13 7 ZZO 994,5 0,3 0,0
27.10.2020 19:00:00 -0,6 -0,7 9 5 12 7 ZZO 994,5 0,7 0,0
27.10.2020 18:00:00 -0,7 -1,0 5 3 11 6 ZO 994,6 0,7 0,0
27.10.2020 17:00:00 -0,9 -1,2 7 4 13 7 ZZO 994,7 0,3 0,0
27.10.2020 16:00:00 -0,6 -0,9 5 3 11 6 ZZO 994,9 50 0,0
27.10.2020 15:00:00 -0,5 -0,8 5 3 11 6 ZZO 995,2 37 0,0
27.10.2020 14:00:00 -0,7 -1,0 5 3 9 5 ZZO 995,7 2,7 0,0
27.10.2020 13:00:00 -0,8 -1,2 8 4 11 6 ZO 996,3 4,0 0,0
27.10.2020 12:00:00 -0,8 -1,2 9 5 15 8 Z 996,9 5 0,0
27.10.2020 11:00:00 -2,0 -2,4 8 4 16 9 ZZO 997,5 5 0,0
27.10.2020 10:00:00 -2,2 -2,8 5 3 10 5 ZO 998,3 7 0,0
27.10.2020 09:00:00 -2,5 -2,9 6 4 16 8 Z 999,1 2,4 0,0
27.10.2020 08:00:00 -2,4 -3,0 7 4 22 12 ZZO 999,1 4,2 0,0
27.10.2020 07:00:00 -2,3 -3,1 19 10 26 14 O 999,4 19 0,0
27.10.2020 06:00:00 -3,0 -3,5 14 8 26 14 OZO 1000,3 4,8 0,0
27.10.2020 05:00:00 -3,0 -3,7 17 9 22 12 OZO 1000,6 4,2 0,0
27.10.2020 04:00:00 -3,1 -3,6 8 4 16 9 ZO 1000,8 3,5 0,0
27.10.2020 03:00:00 -3,0 -3,7 10 5 17 9 ZO 1001,6 2,0 0,0
27.10.2020 02:00:00 -2,8 -3,3 9 5 16 9 ZO 1001,4 7 0,0
27.10.2020 01:00:00 -2,4 -3,0 10 6 19 11 O 1001,6 29 0,0
27.10.2020 00:00:00 -2,3 -2,7 11 6 21 11 OZO 1001,7 34 0,0
26.10.2020 23:00:00 -2,1 -2,5 14 7 20 11 O 1001,4 4,9 0,0
26.10.2020 22:00:00 -1,4 -1,8 13 7 16 9 ZO 1000,7 47 0,0
26.10.2020 21:00:00 -1,3 -1,9 5 3 16 9 Z 1000,4 50 0,0
26.10.2020 20:00:00 -1,0 -1,6 5 3 11 6 ZZO 999,9 50 0,0
26.10.2020 19:00:00 -0,5 -0,9 6 3 11 6 ZZO 999,2 50 0,0
26.10.2020 18:00:00 -0,3 -0,7 3 2 17 9 ZZO 998,9 50 0,0
26.10.2020 17:00:00 0,0 -0,4 8 4 22 12 OZO 998,4 50 0,0
26.10.2020 16:00:00 -0,3 -0,7 16 9 23 12 ZO 997,8 4,8 0,0
26.10.2020 15:00:00 -0,4 -1,0 9 5 24 13 ZO 997,9 17 0,0
26.10.2020 14:00:00 -0,3 -1,0 13 7 27 14 ZZO 997,7 50 0,0
26.10.2020 13:00:00 -0,9 -1,3 18 10 29 15 ZO 997,9 50 0,0
26.10.2020 12:00:00 -1,5 -1,8 13 7 24 13 ZZO 998,1 2,8 0,0
26.10.2020 11:00:00 -1,4 -1,7 10 6 23 13 ZO 998,1 2,7 0,0
26.10.2020 10:00:00 -1,5 -1,8 12 7 21 11 ZO 998,2 0,8 0,0
26.10.2020 09:00:00 -1,1 -1,4 5 3 12 6 Z 997,5 0,5 0,0
26.10.2020 08:00:00 -1,1 -1,5 6 4 27 15 ZZO 997,5 50 0,0
26.10.2020 07:00:00 -0,4 -0,5 12 7 24 13 OZO 997,1 16 0,0
26.10.2020 06:00:00 -0,5 -0,8 13 7 19 11 OZO 996,6 1,3 0,0
26.10.2020 05:00:00 -0,6 -0,9 10 5 19 10 ZO 996,4 50 0,0
26.10.2020 04:00:00 -1,1 -1,4 7 4 18 10 ZZO 996,1 50 0,0
26.10.2020 03:00:00 0,0 -0,3 14 7 19 10 ZO 995,8 6 0,0
26.10.2020 02:00:00 -0,6 -0,9 6 3 21 11 ZO 995,2 3,6 0,1
26.10.2020 01:00:00 -0,5 -0,8 12 7 27 14 OZO 994,9 3,4 0,2
26.10.2020 00:00:00 -0,9 -1,3 16 9 27 15 OZO 994,4 2,1 0,2
25.10.2020 23:00:00 -1,2 -1,6 14 8 30 16 O 994,6 1,8 0,0
25.10.2020 22:00:00 -1,7 -2,1 20 11 33 18 OZO 994,2 0,5 1,7
25.10.2020 21:00:00 -2,0 -2,6 26 14 43 23 ZO 994,4 0,8 0,0
25.10.2020 20:00:00 -2,0 -2,6 26 14 41 22 ZO 995,2 1,2 0,0
25.10.2020 19:00:00 -2,5 -3,0 23 13 42 23 ZO 996,5 1,1 0,6
25.10.2020 18:00:00 -2,8 -3,3 25 13 43 23 ZO 997,5 0,7 2,1
25.10.2020 17:00:00 -3,0 -3,7 23 12 43 23 OZO 998,2 1,0 1,2
25.10.2020 16:00:00 -3,2 -3,7 28 15 50 27 ZO 999,1 0,5 1,8
25.10.2020 15:00:00 -3,6 -4,1 30 16 42 23 ZO 999,5 0,6 1,2
25.10.2020 14:00:00 -3,9 -4,7 24 13 40 21 OZO 1000,7 1,4 2,1
25.10.2020 13:00:00 -4,2 -5,0 23 13 36 19 ZO 1002,1 1,0 2,1
25.10.2020 12:00:00 -4,4 -5,6 22 12 35 19 ZO 1003,1 1,9 0,6
25.10.2020 11:00:00 -4,9 -6,1 17 9 27 15 OZO 1003,6 41 0,0
25.10.2020 10:00:00 -6,2 -7,1 13 7 21 12 ZZO 1004,3 49 0,0
25.10.2020 09:00:00 -8,6 -9,7 12 6 18 10 ZZO 1005,0 50 0,0
25.10.2020 08:00:00 -10,0 -11,1 11 6 18 10 ZZO 1005,6 32 0,0
25.10.2020 07:00:00 -13,0 -14,3 6 3 11 6 ZZO 1006,2 45 0,0
25.10.2020 06:00:00 -13,0 -14,4 5 3 9 5 ZZO 1005,9 50 0,0
25.10.2020 05:00:00 -12,9 -14,2 7 4 11 6 ZO 1006,4 45 0,0
25.10.2020 04:00:00 -16,5 -18,5 3 2 5 3 W 1006,7 50 0,0
25.10.2020 03:00:00 -17,1 -19,0 0 0 13 7 N 1007,1 50 0,0
25.10.2020 02:00:00 -15,9 -17,7 6 4 11 6 WNW 1006,8 50 0,0
25.10.2020 01:00:00 - - - - - - - - - -
25.10.2020 00:00:00 -15,8 -17,7 11 6 14 8 N 1007,0 50 0,0
24.10.2020 23:00:00 -15,0 -16,7 8 5 12 6 NNW 1006,5 50 0,0
24.10.2020 22:00:00 -13,6 -15,0 9 5 14 8 NW 1005,9 50 0,0
24.10.2020 21:00:00 -12,3 -13,5 8 4 10 6 NW 1005,5 50 0,0
24.10.2020 20:00:00 -10,8 -11,8 5 3 11 6 WNW 1005,4 49 0,0
24.10.2020 19:00:00 -10,2 -11,2 4 2 9 5 NNW 1005,1 48 0,0
24.10.2020 18:00:00 -8,9 -10,0 5 3 13 7 NNW 1004,4 50 0,0
24.10.2020 17:00:00 -8,5 -9,6 3 1 14 7 N 1004,3 40 0,0
24.10.2020 16:00:00 -5,6 -7,4 9 5 16 9 NW 1003,6 50 0,0
24.10.2020 15:00:00 -2,9 -5,9 10 6 21 11 NNW 1003,4 50 0,0
24.10.2020 14:00:00 -1,9 -5,4 12 7 19 10 NW 1003,0 50 0,0
24.10.2020 13:00:00 -0,6 -5,7 9 5 21 12 WNW 1002,7 50 0,0
24.10.2020 12:00:00 0,0 -5,6 8 4 21 12 NW 1002,4 44 0,0
24.10.2020 11:00:00 0,4 -5,4 10 5 24 13 NW 1002,0 50 0,0
24.10.2020 10:00:00 -0,3 -4,5 10 6 18 10 NW 1002,0 47 0,0
24.10.2020 09:00:00 -0,9 -4,8 3 1 27 14 N 1001,8 50 0,0
24.10.2020 08:00:00 -2,5 -5,1 14 7 18 10 NNW 1001,5 50 0,0
24.10.2020 07:00:00 -3,3 -5,5 3 2 16 9 O 1001,4 50 0,0
24.10.2020 06:00:00 -3,2 -6,2 16 8 25 13 NW 1001,0 50 0,0
24.10.2020 05:00:00 -5,9 -7,3 8 4 19 11 WNW 1001,5 50 0,0
24.10.2020 04:00:00 -2,4 -4,9 10 6 23 12 WNW 1000,9 50 0,0
24.10.2020 03:00:00 -1,9 -4,4 8 4 20 11 W 1000,2 50 0,0
24.10.2020 02:00:00 -1,4 -4,4 5 3 45 24 NNO 1000,1 50 0,0
24.10.2020 01:00:00 -1,4 -3,6 26 14 46 25 NW 999,3 43 0,0
24.10.2020 00:00:00 -1,2 -3,2 22 12 35 19 N 999,4 27 0,0
23.10.2020 23:00:00 -1,5 -3,4 15 8 29 16 N 999,3 44 -
23.10.2020 22:00:00 -1,9 -3,9 10 5 19 10 NNW 999,2 50 0,0
23.10.2020 21:00:00 -2,3 -4,2 10 5 23 12 NNW 998,6 34 0,0
23.10.2020 20:00:00 -3,0 -5,3 9 5 29 16 NNW 998,5 50 0,0
23.10.2020 19:00:00 -1,7 -4,2 17 9 37 20 WNW 997,6 35 0,0
23.10.2020 18:00:00 -1,3 -4,1 15 8 31 17 WNW 997,0 50 0,2
23.10.2020 17:00:00 -1,7 -4,0 4 2 24 13 OZO 996,6 49 0,0
23.10.2020 16:00:00 -1,7 -4,2 14 8 41 22 WNW 996,6 50 -
23.10.2020 15:00:00 -1,1 -4,1 26 14 43 23 NW 995,7 50 0,1
23.10.2020 14:00:00 -1,1 -3,3 19 10 34 18 NW 995,6 15 0,0
23.10.2020 13:00:00 -0,8 -3,2 18 10 32 17 NW 995,8 5 0,0
23.10.2020 12:00:00 -0,8 -3,0 20 11 39 21 NW 995,4 3,5 0,1
23.10.2020 11:00:00 -0,8 -1,9 21 11 45 24 NW 994,8 3,2 0,1
23.10.2020 10:00:00 -1,4 -2,1 13 7 26 14 NNW 994,6 1,0 0,0
23.10.2020 09:00:00 -1,4 -4,6 13 7 25 14 NW 994,4 4,6 0,0
23.10.2020 08:00:00 -2,3 -5,0 9 5 28 15 NNW 994,7 40 0,0
23.10.2020 07:00:00 -2,7 -5,2 5 3 19 11 WZW 995,2 50 0,0
23.10.2020 06:00:00 -2,3 -5,0 9 5 19 10 N 995,4 29 0,0
23.10.2020 05:00:00 -3,4 -5,3 10 5 15 8 W 996,1 11 0,0
23.10.2020 04:00:00 -3,8 -5,3 10 6 21 12 WNW 996,5 50 0,0
23.10.2020 03:00:00 -3,0 -5,2 14 8 21 12 NNW 996,7 12 0,0
23.10.2020 02:00:00 -3,3 -5,3 13 7 19 10 NNW 997,1 15 0,0
23.10.2020 01:00:00 -7,4 -8,6 2 1 14 7 ZO 998,0 2,7 0,0
23.10.2020 00:00:00 -5,5 -7,0 11 6 16 8 NW 997,9 50 0,0
22.10.2020 23:00:00 -6,6 -8,3 8 4 18 10 WNW 998,4 50 0,0
22.10.2020 22:00:00 -6,7 -8,5 8 4 19 11 WNW 998,6 50 0,0
22.10.2020 21:00:00 -6,8 -8,5 8 4 21 11 WNW 998,7 50 0,0
22.10.2020 20:00:00 -8,7 -10,0 4 2 10 5 WNW 999,4 50 0,0
22.10.2020 19:00:00 -9,9 -11,2 7 4 11 6 NW 999,8 50 0,0
22.10.2020 18:00:00 -9,1 -10,4 8 4 11 6 N 999,7 50 0,0
22.10.2020 17:00:00 -8,1 -9,4 4 2 5 3 NNW 999,8 50 0,0
22.10.2020 16:00:00 -4,8 -6,5 0 0 3 2 N 999,4 47 0,0
22.10.2020 15:00:00 -4,8 -6,5 0 0 5 3 N 999,6 30 0,0
22.10.2020 14:00:00 -4,5 -6,2 3 1 6 4 Z 999,8 5 0,3
22.10.2020 13:00:00 -4,6 -6,4 4 2 9 5 ZZO 1000,1 14 0,0
22.10.2020 12:00:00 -4,8 -6,2 6 4 13 7 ZO 1000,4 37 0,1
22.10.2020 11:00:00 -5,0 -6,1 7 4 13 7 ZZO 1000,6 4,4 0,2
22.10.2020 10:00:00 -5,3 -6,1 6 4 10 6 ZZO 1000,9 3,0 0,3
22.10.2020 09:00:00 -5,7 -6,5 8 4 11 6 ZO 1001,3 9 0,0
22.10.2020 08:00:00 -5,8 -6,5 3 2 8 4 Z 1001,2 4,5 0,0
22.10.2020 07:00:00 -6,0 -6,8 5 3 12 6 Z 1001,5 8 0,1
22.10.2020 06:00:00 -6,0 -6,8 8 4 13 7 ZO 1001,7 5 0,1
22.10.2020 05:00:00 -5,9 -7,3 8 5 16 9 ZO 1002,1 7 0,0
22.10.2020 04:00:00 -5,8 -7,2 10 5 16 9 OZO 1002,5 22 0,0
22.10.2020 03:00:00 -5,7 -7,4 11 6 16 9 OZO 1003,0 13 0,0
22.10.2020 02:00:00 -5,6 -7,7 10 5 19 10 OZO 1003,5 30 0,0
22.10.2020 01:00:00 -5,5 -7,6 13 7 23 12 ZO 1004,1 17 0,0
22.10.2020 00:00:00 -5,3 -7,6 14 7 25 14 OZO 1004,3 50 0,0

tt = temperatuur
td = dauwpunt
ff = windsnelheid
fx = windstoten
dd = windrichting
ppp = luchtdruk
vv = zicht
rr = neerslag

Weerstations in de omgeving